This site, now in its 15th season, is a labour of love and fun from one of Ottawa's most avid time trialists and number crunchers. It adheres to and is permitted by the laws of Canada, promotes the objectives of every bicycle club whose results are shown, and is donated free of charge by myself for your enjoyment and usage. If you would like results from series you ride in to be shown here, give me (celia@drmath.ca) a shout!


Index Page
ATT OTT WTT AATT CFCTT VVVTT
Help resultformat:
Case-sensitive

OBC Open TT Series - 1994-Jul-14 - 15km (Rockliffe Pkwy) (EvtFactor = 0.9380)

Weather (18:00): Mostly Cloudy. Temp.: 23.3°C, Humidity: 49%, DewPoint: 12.1°C, Wind: E 13km/h, Pressure: 100.53kPa, Visibility: 40.2km.
Weather (19:00): Mainly Clear. Temp.: 22.1°C, Humidity: 56%, DewPoint: 12.9°C, Wind: E 7km/h, Pressure: 100.53kPa, Visibility: 40.2km.
Weather (20:00): Mainly Clear. Temp.: 21.6°C, Humidity: 59%, DewPoint: 13.2°C, Wind: E 6km/h, Pressure: 100.49kPa, Visibility: 40.2km.

Send photos with description (when/where/what) of yourself on or off of bike to celia@drmath.ca

 
 

BESTS?
 
1 Roy, Patrick OBC 20:12 44.554 1/84 OVAM 1/20 0.9730
2 Alberti, Lazlo --- 20:23 44.154 2/84 OSEM 1/34 1.1198
3 Guenette, Jean-Yves OBC 20:34 43.760 3/84 OVAM 2/20 1.0519
4 Glover, Jim  OBC 20:35 43.725 4/84 OVAM 3/20 1.0049
5 Parkin, Brian OBC 20:40 43.548 5/84 OVAM 4/20 1.0922
6 Harrington, Noel --- 20:45 43.373 6/84 OSEM 2/34 0.9409
7 Cowan, Norman  OBC 20:54 43.062 7/84 OVAM 5/20 0.9599
8 Daniels, Stephen --- 20:55 43.028 8/84 OSEM 3/34 0.9345
9 Burge, Craig  --- 21:04 42.722 9/84 OSEM 4/34 0.9718
Lavigne, Christian --- 21:04 42.722 9/84 OSEM 4/34 1.2374
11 Ferguson, James OBC 21:08 42.587 11/84 OSEM 6/34 1.4253
12 Bachman, Paul OBC 21:16 42.320 12/84 OSEM 7/34 0.9089
13 Morvan, Jacques  OBC 21:21 42.155 13/84 OVBM 1/12 0.9539
14 Humphreys, Les  OBC/ABC 21:30 41.860 14/84 OVBM 2/12 1.1951
15 Lau, Michael OBC 21:31 41.828 15/84 OSEM 8/34 0.9701
Reinisch, Stephen --- 21:31 41.828 15/84 OSEM 8/34 0.9769
17 Hicks, Bob  OBC 21:33 41.763 17/84 OVBM 3/12 0.9633
18 Bence, John OBC 21:34 41.731 18/84 OSEM 10/34 1.1946
19 St-Amour, Pierre OBC 21:38 41.602 19/84 OVAM 6/20 0.9300
20 Daniels, Phillip --- 21:45 41.379 20/84 OSEM 11/34 0.9954
21 Boudreau, Marc --- 21:47 41.316 21/84 OSEM 12/34 0.9349
22 Martignago, Mike OBC 21:49 41.253 22/84 OVAM 7/20 0.9705
23 Griffiths, Chris OBC 21:50 41.221 23/84 OVBM 4/12 0.9616
24 Buffa, Alex  OBC 21:51 41.190 24/84 OSEM 13/34 0.9483
Moerman, Bram  OBC 21:51 41.190 24/84 OVBM 5/12 0.9706
26 Roundell, Mark  --- 22:02 40.847 26/84 OVAM 8/20  
27 Munden, David --- 22:06 40.724 27/84 OSEM 14/34 1.0000
28 Higgins, Bryan OBC 22:12 40.541 28/84 OSEM 15/34 0.8709
Smith, Ed --- 22:12 40.541 28/84 OSEM 15/34 0.8812
30 Pazdzior, Ellen  OBC 22:17 40.389 30/84 OVAF 1/4 0.9407
31 Murray, Val OBC 22:19 40.329 31/84 OCAM 1/2 0.9978
Timleck, Andrew --- 22:19 40.329 31/84 OSEM 17/34 0.8452
33 Budd, Daniel OBC 22:21 40.268 33/84 OSEM 18/34 0.9473
Price, Chris --- 22:21 40.268 33/84 OSEM 18/34 0.9933
35 Thériault, Louis --- 22:30 40.000 35/84 OSEM 20/34 1.0134
36 Franks, Greg OBC 22:37 39.794 36/84 OVAM 9/20 0.9651
Murray, Ken --- 22:37 39.794 36/84 OJUM 1/2 0.9330
38 Romkey, Gary OBC 22:43 39.618 38/84 OVBM 6/12 0.9738
Stewart, Rob OBC 22:43 39.618 38/84 OVAM 10/20 0.9249
40 Matthews, Paul --- 22:44 39.589 40/84 OVAM 11/20 1.0628
41 Padilla, Alberto --- 22:52 39.359 41/84 OVAM 12/20  
42 Revesz, Erika  OBC 22:55 39.273 42/84 OVAF 2/4 0.9870
43 Menke, Kurt --- 22:59 39.159 43/84 OSEM 21/34 1.1058
44 Major, Karl --- 23:09 38.877 44/84 OSEM 22/34  
45 Bachman, Mike OBC 23:11 38.821 45/84 OVCM 1/3 0.9203
46 Reid, Jack --- 23:12 38.793 46/84 G64M 1/1  
47 Fransham, Richard OBC 23:14 38.737 47/84 OVBM 7/12 0.9638
Somogyi, Michel OBC 23:14 38.737 47/84 OJUM 2/2 1.0108
49 Pritlove, James --- 23:16 38.682 49/84 OSEM 23/34 1.0108
50 LaViolette, Nicole  OBC 23:19 38.599 50/84 OSEF 1/4 1.2351
51 Boissonneault, France OBC 23:27 38.380 51/84 OVAF 3/4 1.1312
52 Anderson, Allan OBC 23:31 38.271 52/84 OVAM 13/20 1.0410
53 Aller, Mo OBC 23:35 38.163 53/84 OVCM 2/3 1.0021
54 Hull, Alec --- 23:39 38.055 54/84 OSEM 24/34  
55 Posthuma, Hans  --- 23:43 37.948 55/84 OVAM 14/20  
56 Moxley, Don OBC 23:44 37.921 56/84 OVBM 8/12 0.9667
57 Taylor, Doug ABC 23:48 37.815 57/84 OVBM 9/12  
58 Delisle, Stephane --- 23:51 37.736 58/84 OSEM 25/34 0.9916
59 Wooldridge, Harry ABC 23:53 37.683 59/84 OVBM 10/12  
60 Montpetit, Stephane --- 23:58 37.552 60/84 OSEM 26/34 0.9896
61 Atkinson, John OBC 24:00 37.500 61/84 OVAM 15/20  
62 Chambers, Rob --- 24:04 37.396 62/84 OSEM 27/34  
63 Weiman, David --- 24:10 37.241 63/84 OSEM 28/34 0.9979
64 Hardy, Paul --- 24:17 37.062 64/84 OVAM 16/20  
65 Erskine, James --- 24:18 37.037 65/84 OSEM 29/34 0.9594
66 Davison, Peter OBC 24:25 36.860 66/84 OVBM 11/12 0.9556
67 Hicks, Terry --- 24:26 36.835 67/84 OVAM 17/20 0.8561
68 Soucy, Dominic --- 24:29 36.760 68/84 OSEM 30/34 0.9919
69 Hope, Walter --- 25:16 35.620 69/84 OVAM 18/20  
70 Ajersch, Mary  OBC 25:21 35.503 70/84 OVBF 1/2 0.9194
71 FitzGerald, Dennis ABC 25:28 35.340 71/84 OVBM 12/12 0.9921
72 Dawson, Michael OBC 25:33 35.225 72/84 OCAM 2/2 0.9182
73 LaRiviere, Denis --- 25:35 35.179 73/84 OSEM 31/34  
74 Rotchar, Dwayne --- 25:39 35.088 74/84 OSEM 32/34  
75 McInnis, Celia  OBC 25:50 34.839 75/84 OVAF 4/4 0.8901
76 Ladouceur, Andrée --- 26:20 34.177 76/84 OSEF 2/4  
77 Chapman, Kerry --- 26:35 33.856 77/84 OSEF 3/4 0.9053
78 Gerber, Rosmarie OBC 26:57 33.395 78/84 OVBF 2/2 1.0799
Smart, Eric OBC 26:57 33.395 78/84 OVCM 3/3  
80 Éthier, René --- 27:47 32.394 80/84 OVAM 19/20  
81 Yelle, Carole-Anne --- 29:14 30.787 81/84 OSEF 4/4  
82 Grénier, Sylvain --- DNF   82/84 OSEM 33/34  
Hanrahan, Ed --- DNF   82/84 OVAM 20/20  
Kinnear, Stephen --- DNF   82/84 OSEM 33/34  
 
Average Speed of all of the above 81 finishes (1215km in 31:12:15):38.937
>>>Average of the Average Speeds for these 81 finishes39.168<<<
 

The number of data records shown above is 84
The server processing of your query took: 0 wallclock secs ( 0.06 usr + 0.01 sys = 0.07 CPU)

     


Apr 1 (Good Friday) Apr 14 Apr 21 Apr 28
May 3 May 5 May 10 May 12 (22km) May 15 (40km) May 17 May 19 May 24 May 24 (10km) May 26 (cancelled) May 29 (40km)
Jun 2 Jun 5 (38km) Jun 7 Jun 9 Jun 14 (40km) Jun 14 Jun 16 Jun 21 Jun 21 Jun 23 Jun 26 (40km/80km) Jun 28 (40km) Jun 28 Jun 29
Jul 5 Jul 6 Jul 7 Jul 10 (22km) Jul 12 Jul 13
  Jul 14  
Jul 19 Jul 20 Jul 21 Jul 24 (38km) Jul 26 Jul 27 Jul 28
Aug 2 Aug 3 Aug 9 Aug 10 Aug 11 Aug 14 (40km/80km) Aug 16 Aug 17 Aug 18 Aug 20 (22km) Aug 23 Aug 24 Aug 28 (38km) Aug 30 (Invitational) Aug 31
Sep 1 Sep 6 Sep 8 Sep 13 Sep 20 Sep 25 (40km)

OTT Rankings
Best       Best by category
WTT Rankings for OBC Members
5 Best 15km     5 Best 15km by category
OBC Member Best Three 15km Rankings
Overall     by category
OBC BAR Ranking
Overall     by category     Rider "Consistency-Graph"
ABC BAR Ranking
Overall     by category     Rider "Consistency-Graph"
Other years
TT Calculator All TT People All TT events
ABC Home VVV Home
CKAP GOLD MEDAL
Other Links

Please send your comments and suggestions to: Celia McInnis
Copyright © 1998-2011 Celia McInnis. All rights reserved. Links are welcomed.